AirNav   Phillips 66 Aviation Fuel
 
 1006 users online  

16CO Dry Pen Airport
Parachute, Colorado, USA

GOING TO PARACHUTE?


FAA INFORMATION EFFECTIVE 12 SEPTEMBER 2019

Location

FAA Identifier: 16CO
Lat/Long: 39-24-08.4000N 108-04-35.8200W
39-24.140000N 108-04.597000W
39.4023333,-108.0766167
(estimated)
Elevation: 5331 ft. / 1625 m
From city: 3 miles SW of PARACHUTE, CO
Time zone: UTC -6 (UTC -7 during Standard Time)
Zip code: 81635

Airport Operations

Airport use: Private use. Permission required prior to landing
Activation date: 05/2007
Control tower: no
ARTCC: DENVER CENTER
FSS: DENVER FLIGHT SERVICE STATION
Attendance: UNATNDD
Wind indicator: yes
Segmented circle: no

Airport Communications

WX ASOS at RIL (18 nm NE): 135.275 (970-625-2206)

Nearby radio navigation aids

VOR radial/distance  VOR name  Freq  Var
RILr235/18.2RIFLE VOR/DME110.6010E
JNCr043/39.1GRAND JUNCTION VOR/DME112.4015E

Airport Services

Runway Information

Runway 9/27

Dimensions: 1800 x 65 ft. / 549 x 20 m
Surface: turf
RUNWAY 9  RUNWAY 27
Traffic pattern: leftleft
Obstructions: 4 ft. fence, 300 ft. from runway20 ft. pline, marked, 700 ft. from runway

Airport Ownership and Management from official FAA records

Ownership: Privately-owned
Owner: DONALD R. THROM
1689 COUNTY ROAD
PARACHUTE, CO 81635
Phone 970-285-1955
Manager: DONALD R. THROM
1689 COUNTY ROAD
PARACHUTE, CO 81635
Phone 970-285-1955

Airport Operational Statistics

Aircraft based on the field: 1
Single engine airplanes: 1
    

Additional Remarks

FOR CD CTC DENVER ARTCC AT 303-651-4257.

Instrument Procedures

There are no published instrument procedures at 16CO.

Some nearby airports with instrument procedures:

KRIL - Rifle Garfield County Airport (18 nm NE)
KGJT - Grand Junction Regional Airport (27 nm SW)
KAJZ - Blake Field Airport (37 nm S)
KEEO - Meeker Coulter Field Airport (40 nm N)
4V0 - Rangely Airport (52 nm NW)
 
Loc | Ops | Rwys | IFR | FBO | Links
Com | Nav | Svcs | Stats | Notes

AirBoss

 
Aerial photo
No photo
 
Sectional chart

 
Airport distance calculator
Flying to Dry Pen Airport? Find the distance to fly.

From to 16CO

Sunrise and sunset
Times for 22-Sep-2019
 Local
(UTC-6)
 Zulu
(UTC)
Morning civil twilight06:3412:34
Sunrise07:0113:01
Sunset19:0901:09
Evening civil twilight19:3601:36

Current date and time
Zulu (UTC)  22-Sep-2019 15:38:41
Local (UTC-6)  22-Sep-2019 09:38:41
 
METAR
KRIL 
18nm NE 
221453Z AUTO 00000KT 10SM CLR 07/M04 A3025 RMK AO2 SLP214 T00671039 51015
KGJT 
27nm SW 
221453Z 09009KT 10SM CLR 13/M03 A3021 RMK AO2 SLP193 T01281033 51017
K5SM 
32nm E 
221506Z AUTO 22006G15KT 10SM CLR 02/M08 A3041 RMK AO2
TAF
KRIL 
18nm NE 
221120Z 2212/2312 00000KT P6SM SKC FM222000 27006KT P6SM SKC FM230100 24006KT P6SM SKC FM230800 00000KT P6SM FEW250
NOTAMs
Click for the latest NOTAMs
NOTAMs are issued by the DoD/FAA and will open in a separate window not controlled by AirNav.

 

 
 

Would you like to see your business listed on this page?

 If your business provides an interesting product or service to pilots, flight crews, aircraft, or users of the Dry Pen Airport, you should consider listing it here.  To start the listing process, click on the button below
 
Add a business
 

Other Pages about Dry Pen Airport

Update a link
 
Copyright © AirNav, LLC. All rights reserved. Privacy Policy  Contact